Location: Canyon City
(32.5951°N, 116.5278°W)
Time: 03:16:39
(UTC+00:00)

IRS-1D - Pass Details

Date: 08 September 2024
Orbit: 738 x 812 km, 98.8° (Epoch: 03 October)

Event Time Altitude Azimuth Distance (km) Brightness Sun altitude
Rises 12:03:51 0° 6° (N) 3,326 7.1 -17.6°
Reaches altitude 10° 12:06:15 10° 1° (N) 2,397 6.3 -17.2°
Maximum altitude 12:11:21 49° 287° (WNW) 1,034 3.8 -16.1°
Enters shadow 12:15:15 17° 218° (SW) 1,952 5.1 -15.4°
